SCP
2 2 3 4 4 3 2 2 2 1 1 1 1 1 1 1 0 0 0 0 0 0 0 0 0 0 0 0 0 0 0 0 0 0 0 0 0 1 1 0 0 0 1
2 2 2 3 3 2 2 2 1 1 1 1 1 0 0 0 0 0 0 0 0 0 0 0 0 0 0 0 0 0 0 0 0 0 0 0 0 0 0 0 0 0 1
2 2 2 3 2 2 2 1 1 1 0 0 0 0 0 0 0 0 0 0 0 0 0 0 0 0 0 0 0 0 0 0 0 0 0 0 0 0 0 0 0 0 0
2 1 1 2 2 1 1 1 1 1 0 0 0 0 0 0 0 0 0 0 0 0 0 0 0 0 0 0 0 0 0 0 0 0 0 0 0 0 0 0 0 0 0
1 1 1 1 1 1 1 1 1 0 0 0 0 0 0 0 0 0 0 0 0 0 0 0 0 0 0 0 0 0 0 0 0 0 0 0 0 0 0 0 0 0 0
1 1 0 1 1 1 1 1 1 0 0 0 0 0 0 0 0 0 0 0 0 0 0 0 0 0 0 0 0 0 0 0 0 0 0 0 0 0 0 0 0 0 0
1 0 0 0 0 1 1 1 0 0 0 0 0 0 0 0 0 0 0 0 0 0 0 0 0 0 0 0 0 0 0 0 0 0 0 0 0 0 0 0 0 0 0
0 0 0 0 0 0 0 0 0 0 0 0 0 0 0 0 0 0 0 0 0 0 0 0 0 0 0 0 0 0 0 0 0 0 0 0 0 0 0 0 0 0 0
0 0 0 0 0 0 0 0 0 0 0 0 0 0 0 0 0 0 0 0 0 0 0 0 0 0 0 0 0 0 0 0 0 0 0 0 0 0 0 0 0 0 0
0 0 0 0 0 0 0 0 0 0 0 0 0 0 0 0 0 0 0 0 0 0 0 0 0 0 0 0 0 0 0 0 0 0 0 0 0 0 0 0 0 0 0
0 0 0 0 0 0 0 0 0 0 0 0 0 0 0 0 0 0 0 0 0 0 0 0 0 0 0 0 0 0 0 0 0 0 0 0 0 0 0 0 0 0 0
0 0 0 0 0 0 0 0 0 0 0 0 0 0 0 0 0 0 0 0 0 0 0 0 0 0 0 0 0 0 0 0 0 0 0 0 0 0 0 0 0 0 0
0 0 0 0 0 0 0 0 0 0 0 0 0 0 0 0 0 0 0 0 0 0 0 0 0 0 0 0 0 0 0 0 0 0 0 0 0 0 0 0 0 0 0
0 0 0 0 0 0 0 0 0 0 0 0 0 0 0 0 0 0 0 0 0 0 0 0 0 0 0 0 0 0 0 0 0 0 0 0 0 0 0 0 0 0 0
0 0 0 0 0 0 0 0 0 0 0 0 0 0 0 0 0 0 0 0 0 0 0 0 0 0 0 0 0 0 0 0 0 0 0 0 0 0 0 0 0 0 0
0 0 0 0 0 0 0 0 0 0 0 0 0 0 0 0 0 0 0 0 0 0 0 0 0 0 0 0 0 0 0 0 0 0 0 0 0 0 0 0 0 0 0
0 0 0 0 0 0 0 0 0 0 0 0 0 0 0 0 0 0 0 0 0 0 0 0 0 0 0 0 0 0 0 0 0 0 0 0 0 0 0 0 0 0 0
0 0 0 0 0 0 0 0 0 0 0 0 0 0 0 0 0 0 0 0 0 0 0 0 0 0 0 0 0 0 0 0 0 0 0 0 0 0 0 0 0 0 0
0 0 0 0 0 0 0 0 0 0 0 0 0 0 0 0 0 0 0 0 0 0 0 0 0 0 0 0 0 0 0 0 0 0 0 0 0 0 0 0 0 0 0
0 0 0 0 0 0 0 0 0 0 0 0 0 0 0 0 0 0 0 0 0 0 0 0 0 0 0 0 0 0 0 0 0 0 0 0 0 0 0 0 0 0 0
0 0 0 0 0 0 0 0 0 0 0 0 0 0 0 0 0 0 0 0 0 0 0 0 0 0 0 0 0 0 0 0 0 0 0 0 0 0 0 0 0 0 0
0 0 0 0 0 0 0 0 0 0 0 0 0 0 0 0 0 0 0 0 0 0 0 0 0 0 0 0 0 0 0 0 0 0 0 0 0 0 0 0 0 0 0
0 0 0 0 0 0 0 0 0 0 0 0 0 0 0 0 0 0 0 0 0 0 0 0 0 0 0 0 0 0 0 0 0 0 0 0 0 0 0 0 0 0 0
0 0 0 0 0 0 0 0 0 0 0 0 0 0 0 0 0 0 0 0 0 0 0 0 0 0 0 0 0 0 0 0 0 0 0 0 0 0 0 0 0 0 0
0 0 0 0 0 0 0 0 0 0 0 0 0 0 0 0 0 0 0 0 0 0 0 0 0 0 0 0 0 0 0 0 0 0 0 0 0 0 0 0 0 0 0
0 0 0 0 0 0 0 0 0 0 0 0 0 0 0 0 0 0 0 0 0 0 0 0 0 0 0 0 0 0 0 0 0 0 0 0 0 0 0 0 0 0 0
Wind_Speed
3 4 4 5 5 4 5 4 4 3 3 3 3 3 2 2 2 2 3 2 2 2 2 1 1 1 1 1 1 1 1 0 0 1 2 2 2 3 3 3 3 5 5
4 5 5 5 4 4 5 5 4 4 3 3 2 3 3 2 2 2 3 3 2 2 2 2 1 1 1 2 1 1 1 1 1 1 1 2 3 2 1 2 2 4 3
8 7 5 5 5 5 5 5 4 4 4 4 4 4 3 3 3 3 3 3 3 2 3 3 2 2 2 1 1 1 1 0 1 1 1 1 1 3 2 2 1 2 2
6 7 7 7 6 5 5 5 5 5 4 4 4 4 3 2 1 1 2 3 4 3 3 3 3 3 2 1 1 1 1 1 0 1 0 1 1 1 3 3 2 3 2
7 8 8 8 7 6 5 5 5 5 4 4 5 6 4 2 1 2 3 3 4 4 3 3 3 3 2 2 2 2 1 1 1 1 0 0 0 1 1 3 4 3 3
7 7 6 6 6 5 5 5 5 4 4 4 5 6 6 4 3 3 2 2 2 3 4 3 2 2 1 1 1 1 1 1 1 1 1 1 1 1 1 2 3 3 3
8 8 8 8 7 7 6 5 6 4 3 4 4 4 5 4 4 3 2 1 1 1 2 2 1 1 1 0 1 1 0 0 1 1 1 1 2 1 2 2 2 3 3
8 9 10 9 8 8 7 7 6 5 4 4 3 3 4 3 2 2 2 2 1 1 1 1 1 1 1 1 1 0 0 0 1 1 1 1 2 2 2 2 2 2 3
10 10 10 9 9 9 8 8 7 5 5 4 4 3 3 3 3 2 2 1 1 1 1 1 1 1 1 1 1 0 1 1 1 2 2 2 2 2 3 3 3 3 3
9 9 9 9 9 8 7 7 7 6 5 4 4 3 3 3 3 2 2 2 1 1 1 1 1 2 2 1 1 1 1 2 2 2 2 2 2 2 2 3 3 4 4
12 11 9 9 7 7 7 7 6 5 4 4 4 3 3 3 3 2 2 2 1 1 2 2 2 2 2 2 1 2 2 2 3 3 3 4 3 3 2 2 3 3 4
10 10 9 8 7 7 7 7 7 6 5 5 4 4 3 3 3 2 3 2 2 2 2 2 2 3 3 2 3 3 3 3 4 4 3 4 3 4 3 3 4 4 5
9 8 8 8 8 8 8 7 7 7 5 5 5 4 4 3 3 3 3 2 2 2 2 2 3 4 4 4 4 4 4 4 4 4 4 5 4 5 4 4 4 4 4
10 10 9 8 8 8 8 8 7 6 6 6 5 5 5 5 4 4 3 3 3 3 3 3 4 4 4 4 4 4 4 4 5 5 5 5 5 6 6 5 5 5 5
10 12 11 9 8 8 7 7 7 6 6 6 6 6 5 4 3 3 3 3 3 4 4 4 4 4 4 5 5 5 5 5 5 5 5 6 8 9 7 6 6 5 5
13 12 11 11 10 10 9 8 8 7 6 7 7 5 4 4 4 4 3 3 4 4 4 4 5 5 5 6 8 6 5 5 6 7 6 6 7 8 9 9 9 8 7
14 14 14 13 12 11 10 10 9 7 7 6 6 5 5 5 5 4 3 4 4 4 4 5 5 6 7 10 10 9 6 6 7 7 7 6 6 6 6 8 9 9 10
12 12 11 11 9 9 8 8 7 8 7 6 6 5 5 5 5 4 4 5 4 4 4 5 6 6 8 10 10 10 6 7 8 8 8 8 8 7 6 6 7 8 8
12 11 11 10 9 10 9 9 8 7 7 7 7 7 6 6 5 5 6 4 4 5 5 5 6 7 9 10 10 8 5 6 8 8 7 8 9 10 9 7 8 9 9
8 8 8 7 9 9 9 10 9 8 9 9 8 7 6 6 6 6 6 4 4 5 5 6 6 7 9 10 10 7 4 6 7 7 7 10 11 11 9 7 7 10 9
7 8 9 9 9 10 11 10 9 10 10 7 6 6 6 6 6 5 4 4 4 5 5 7 7 7 9 10 11 9 5 6 7 6 6 6 9 11 11 9 9 11 10
8 9 9 8 7 10 11 10 10 9 6 6 6 6 6 5 5 5 5 4 4 5 6 6 7 6 7 8 9 10 10 8 7 7 7 7 9 10 11 9 10 12 10
9 8 9 8 7 9 10 11 9 6 6 6 6 5 5 5 4 4 5 4 4 4 5 5 6 7 6 6 10 12 11 11 8 8 10 11 11 10 9 10 12 9 6
8 8 9 9 8 8 8 7 5 7 7 6 6 4 4 5 4 4 4 5 5 5 5 6 6 7 6 6 6 5 6 7 8 7 8 9 10 9 9 9 7 6 6
6 7 9 9 8 8 7 6 6 7 6 6 5 4 4 5 4 5 5 7 7 7 7 6 6 6 8 9 8 6 5 5 5 4 3 4 4 5 5 6 6 5 5
6 7 7 6 6 6 5 4 5 6 6 5 4 4 4 4 4 5 5 9 11 12 14 14 12 9 12 14 13 12 12 10 7 4 5 6 6 6 7 6 6 5 6
Wind_Direction
129 122 114 106 101 101 107 109 107 105 108 98 97 94 76 52 47 47 53 61 72 88 111 102 88 89 95 91 114 137 112 21 335 342 318 305 272 257 250 249 249 251 247
123 120 112 109 116 126 119 115 115 110 111 117 114 109 105 85 73 40 44 41 54 72 107 112 105 100 95 71 68 93 106 34 52 120 45 335 336 323 294 270 249 259 255
149 142 140 134 139 144 145 135 131 120 113 114 102 89 72 53 39 30 25 15 32 61 86 100 100 94 101 96 81 104 123 113 13 72 142 149 278 313 322 322 309 295 272
154 154 152 153 159 156 141 133 124 112 107 109 114 122 120 112 78 46 31 24 36 58 77 85 87 85 87 89 73 107 123 130 84 349 1 191 191 260 319 320 320 316 291
166 164 163 161 161 154 146 135 119 108 105 105 114 112 108 112 96 68 59 42 32 38 56 72 77 77 74 75 66 78 98 129 161 192 246 68 52 184 228 293 317 323 297
171 164 156 150 149 147 142 135 124 113 111 115 119 126 129 128 113 93 78 50 32 28 36 58 62 66 65 62 61 76 98 129 168 194 201 187 196 209 208 252 287 299 296
172 165 163 165 164 162 157 147 140 138 137 131 132 136 139 137 135 133 122 108 62 26 10 33 34 33 27 46 78 81 69 167 197 217 224 223 227 213 204 227 263 282 293
179 178 178 176 176 173 166 160 160 159 159 152 151 145 143 137 142 152 158 163 178 218 293 355 357 353 357 14 34 26 305 229 243 245 230 235 241 221 210 213 223 274 287
185 184 182 180 180 178 176 173 169 168 170 166 158 157 158 157 164 166 163 177 214 233 256 311 328 333 339 344 352 302 294 284 267 262 252 244 250 239 234 229 216 228 266
185 183 183 184 182 179 173 170 169 172 172 169 173 170 176 176 174 169 184 200 224 249 282 299 306 313 316 317 302 280 274 266 270 257 258 258 254 254 245 238 233 227 237
187 186 185 182 175 165 164 167 169 167 170 173 174 169 175 172 169 183 207 211 224 242 259 271 281 287 289 292 281 274 271 267 275 275 263 267 263 260 257 245 242 237 228
185 181 176 169 167 169 170 173 174 175 179 174 172 177 176 170 179 205 223 223 236 253 260 268 273 275 272 270 261 271 273 264 272 277 274 275 276 267 264 253 250 247 236
174 169 167 173 178 177 177 178 178 181 174 167 170 175 180 185 201 219 231 236 246 264 272 266 269 272 272 268 262 257 261 257 260 264 265 269 269 269 264 258 256 256 255
175 173 178 182 182 179 179 179 182 179 171 169 174 187 198 202 211 221 231 238 243 255 264 262 265 269 271 266 264 260 260 263 265 262 259 261 256 259 263 262 258 258 261
180 182 184 184 181 177 179 180 181 177 172 171 184 202 205 205 210 223 236 244 248 254 258 265 272 273 269 260 256 257 259 262 272 274 266 263 264 260 255 257 257 255 257
190 189 186 182 184 183 182 180 182 179 170 179 196 201 197 201 212 226 237 247 255 261 262 262 266 272 270 272 271 264 260 263 267 276 279 278 272 274 272 268 264 251 251
189 187 188 188 188 186 179 182 182 169 172 187 195 194 195 207 221 227 231 242 249 252 261 264 263 267 272 275 277 273 261 258 261 264 271 277 276 277 276 279 281 272 259
188 189 187 187 184 175 171 170 161 166 178 188 196 197 197 212 223 225 236 243 243 248 256 263 264 267 273 274 275 276 264 258 260 258 258 263 273 272 267 274 279 278 273
184 184 183 179 171 170 166 158 163 170 181 194 201 202 200 208 216 227 238 239 239 251 253 260 263 265 275 275 274 271 259 261 265 263 257 254 262 267 264 264 272 280 281
171 168 160 152 162 167 157 159 170 178 196 203 204 202 198 205 217 227 234 231 232 250 262 267 263 260 268 275 275 264 244 259 268 270 262 251 252 261 261 255 259 269 274
162 152 153 164 173 160 156 168 177 197 204 196 193 197 202 210 220 227 229 233 242 257 264 270 273 266 262 271 272 258 229 243 261 269 270 264 254 257 260 252 248 252 262
152 153 159 168 160 159 164 175 195 203 186 181 192 204 209 216 219 221 237 236 238 257 268 273 282 276 264 258 265 260 242 235 246 259 265 267 270 268 268 260 253 257 260
159 157 159 159 161 170 173 185 201 179 171 182 201 211 214 218 217 220 237 243 238 246 262 265 273 280 278 266 259 262 258 245 239 252 257 265 273 276 270 259 260 260 252
157 152 151 161 173 179 188 194 173 162 170 191 208 209 213 227 227 226 229 233 241 246 255 260 265 273 278 275 266 259 260 255 248 255 266 273 273 266 263 269 265 250 241
149 152 161 171 177 175 185 186 168 163 178 196 209 215 221 229 239 239 232 232 235 229 234 249 250 258 270 268 257 253 259 253 250 258 267 269 274 276 273 268 264 255 243
142 147 156 159 160 160 172 178 167 167 175 195 213 218 224 231 238 252 266 244 241 251 243 243 245 251 250 265 275 267 261 260 248 225 250 263 265 267 270 273 273 261 250